Regional Weather Roundup
Issued by NWS

Home | Current Version | Previous Version | Text Only | Print | Product List | Glossary On
Versions: 1 2 3 4 5 6 7 8 9 10 11 12 13 14 15 16 17 18 19 20 21 22 23 24 25 26 27 28 29 30 31 32 33 34 35 36 37 38 39 40 41 42 43 44 45 46 47 48 49 50
000
ASUS45 KBOU 061707
RWRCO

WEATHER ROUNDUP FOR COLORADO
NATIONAL WEATHER SERVICE DENVER/BOULDER CO
1100 AM MDT FRI MAY 06 2016

NOTE: "FAIR" INDICATES FEW OR NO CLOUDS BELOW 12000 FEET WITH NO
SIGNIFICANT WEATHER AND/OR OBSTRUCTIONS TO VISIBILITY.

COZ001>005-013-030-031-061800-
...NORTHWEST COLORADO...

CITY           SKY/WX    TMP DP  RH WIND       PRES   REMARKS
CRAIG          PTSUNNY   59  41  51 NE3       30.04F
HAYDEN         FAIR      57  36  44 NE7       30.06F
MEEKER         FAIR      66  39  37 E13       30.01F
MOUNT WERNER   NOT AVBL
STEAMBOAT SPGS CLOUDY    57  35  43 W5        30.09R
WALDEN         FAIR      61  27  27 S3        30.13S
$$

COZ006>008-011-061800-
...WEST CENTRAL VALLEYS...

CITY           SKY/WX    TMP DP  RH WIND       PRES   REMARKS
GRAND JUNCTION CLOUDY    70  39  32 E13       29.86F
MONTROSE       FAIR      72  35  25 E20G30    29.93F
EAGLE          SUNNY     63  32  31 N7        30.07F
RIFLE          FAIR      71  39  31 E14G21    29.95F
DELTA          NOT AVBL
NUCLA          NOT AVBL
$$

COZ017>023-064>068-061800-
...SOUTHWEST COLORADO...

CITY           SKY/WX    TMP DP  RH WIND       PRES   REMARKS
DURANGO        FAIR      69  26  20 SE17G28   29.99F
CORTEZ         FAIR      70  30  22 MISG      29.94F
PAGOSA SPRINGS PTSUNNY   66  26  22 S16G22    30.09F
TELLURIDE      FAIR      58  25  27 S17G26    30.12S
WOLF CREEK PAS PTSUNNY   43  28  56 S15G29    30.34F
$$

COZ009-010-012-014-032>034-037-058>063-061800-
...CENTRAL COLORADO...

CITY           SKY/WX    TMP DP  RH WIND       PRES   REMARKS
ASPEN          FAIR      61  34  36 SW9       30.09F
BUENA VISTA    PTSUNNY   58  29  33 CALM      30.18F
COPPER MTN     NOT AVBL
BERTHOUD PASS  PTSUNNY   36  28  75 SE7       30.41S
COTTONWOOD PAS FAIR      59  32  36 E9        30.26F
GUNNISON       PTSUNNY   61  34  36 E17G28    30.10F
KREMMLING      CLOUDY    59  28  31 W7G17     30.13R
LEADVILLE      PTSUNNY   48  29  47 VRB5      30.25F
MONARCH PASS   CLOUDY    36  28  75 NE16G25   30.45S
SALIDA         FAIR      61  29  29 CALM      30.22F
SUNLIGHT       FAIR      50  34  53 E3        30.26F
WILKERSON PASS PTSUNNY   45  28  53 SW6G16    30.37S
$$

COZ069>075-061800-
...SAN LUIS VALLEY/SANGRE DE CRISTO MOUNTAINS...

CITY           SKY/WX    TMP DP  RH WIND       PRES   REMARKS
ALAMOSA        FAIR      67  32  27 S10G17    30.10F
LA VETA PASS   CLOUDY    54  30  40 SW3       30.28F
SAGUACHE       FAIR      61  32  33 S9        30.15F
$$

COZ035-036-038>040-061800-
...NORTHERN COLORADO FRONT RANGE...

CITY           SKY/WX    TMP DP  RH WIND       PRES   REMARKS
DENVER INTL AP PTSUNNY   73  37  27 SW3       29.98F
DMNS CITY PARK   N/A     74  38  27 N5G16     29.97F
AURORA         FAIR      74  37  25 CALM      30.00F
FRONT RANGE AP PTSUNNY   73  36  25 S3        30.00F
ERIE MUNI ARPT FAIR      69  43  39 CALM      29.97F
BOULDER MUN AP FAIR      70  43  37 E6        29.97F
CENTENNIAL     PTSUNNY   76  32  20 S8        30.00F
BROOMFIELD     MOSUNNY   68  39  34 CALM      30.00F
FORT COLLINS   FAIR      66  46  48 NE3       29.97F
LONGMONT       FAIR      73  43  34 CALM      29.98F
$$

COZ041-046-047-076>085-087-088-061800-
...PIKES PEAK/PALMER DIVIDE AND SOUTHERN FOOTHILLS...

CITY           SKY/WX    TMP DP  RH WIND       PRES   REMARKS
COLO. SPRINGS  FAIR      71  37  28 S9G24     30.06S
A. F. ACADEMY  MOSUNNY   68  36  30 SE12      30.06S
SCHRIEVER AFB  NOT AVBL
ELLICOTT       FAIR     N/A N/A N/A SW13      30.05S
FALCON         NOT AVBL
FORT CARSON    FAIR      74  38  27 SE12      30.01F
LIMON          FAIR      75  45  34 S10       30.01F
MONUMENT HILL  FAIR      68  30  24 S9G18     30.10S
TRINIDAD       PTSUNNY   70  32  24 SW17G26   30.06R
$$

COZ042>045-048>051-090-091-061800-
...NORTHEAST COLORADO...

CITY           SKY/WX    TMP DP  RH WIND       PRES   REMARKS
GREELEY ARPT   FAIR      66  46  48 CALM      29.97F
AKRON          FAIR      68  47  46 S7        29.97S
BURLINGTON     FAIR      80  31  16 S24       29.99S
WRAY           NOT AVBL
STERLING       FAIR      72  46  40 S5        29.93F
HOLYOKE        NOT AVBL
FORT MORGAN    FAIR      68  46  44 SE6       29.97S
$$

COZ086-089-092>099-061800-
...SOUTHEAST COLORADO...

CITY           SKY/WX    TMP DP  RH WIND       PRES   REMARKS
PUEBLO         FAIR      71  43  36 SE5       29.99F
LA JUNTA       FAIR      82  32  16 S17       29.97F
LAMAR          FAIR      85  33  15 SW21G29   29.96F
SPRINGFIELD      N/A     78  31  17 SW22G35   30.03R
$$



USA.gov is the U.S. government's official web portal to all federal, state and local government web resources and services.